Regional Weather Roundup
Issued by NWS

Home | Current Version | Previous Version | Graphics & Text | Print | Product List | Glossary Off
Versions: 1 2 3 4 5 6 7 8 9 10 11 12 13 14 15 16 17 18 19 20 21 22 23 24 25 26 27 28 29 30 31 32 33 34 35 36 37 38 39 40 41 42 43 44 45 46 47 48 49 50

000
ASUS43 KFSD 280502
RWRSD

WEATHER ROUNDUP FOR SOUTH DAKOTA
NATIONAL WEATHER SERVICE SIOUX FALLS SD
1200 AM CDT SUN MAY 28 2017

NOTE: "FAIR" INDICATES FEW OR NO CLOUDS BELOW 12,000 FEET WITH NO
SIGNIFICANT WEATHER AND/OR OBSTRUCTIONS TO VISIBILITY.


SDZ001>005-009-010-012>017-280600-
NORTHWEST AND NORTH CENTRAL SOUTH DAKOTA

CITY           SKY/WX    TMP DP  RH WIND       PRES   REMARKS
BUFFALO          N/A     51  44  77 W9        29.94R
FAITH            N/A     55  46  71 W14       29.95F
MOBRIDGE       CLEAR     47  42  83 CALM      29.87F
$$

SDZ012>016-024>037-041>051-057-063-072>074-280600-
SOUTHWEST AND SOUTH CENTRAL SOUTH DAKOTA

CITY           SKY/WX    TMP DP  RH WIND       PRES   REMARKS
RAPID CTY ARPT PTCLDY    52  40  63 W9        30.05R
PIERRE         PTCLDY    59  43  55 W12       29.91S
CUSTER         MOCLDY    49  35  58 NW12G21   30.18R
ELLSWORTH AFB  CLEAR     53  42  65 W12       30.04R
PHILIP         PTCLDY    53  44  71 W6        29.98S
PINE RIDGE     MOCLDY    54  47  77 CALM      30.07R
SPEARFISH      FAIR      54  39  58 W13       30.08F
WINNER         CLOUDY    60  46  59 W9        29.96R
$$

SDZ004>011-016>023-039-040-280600-
NORTHEAST SOUTH DAKOTA

CITY           SKY/WX    TMP DP  RH WIND       PRES   REMARKS
ABERDEEN       CLOUDY    53  46  77 NW8       29.84R
WATERTOWN      CLOUDY    59  48  67 W10       29.84R
BROOKINGS      MOCLDY    57  48  72 SW8       29.85F
SISSETON         N/A     55  50  83 NW5       29.79F
$$

SDZ017-020-022-023-036>040-048>070-280600-
SOUTHEAST SOUTH DAKOTA

CITY           SKY/WX    TMP DP  RH WIND       PRES   REMARKS
SIOUX FALLS    CLEAR     57  52  83 SW6       29.89F
HURON          CLOUDY    59  46  62 W7        29.86S
CHAMBERLAIN    CLOUDY    62  45  53 NW6       29.92S
MITCHELL       CLOUDY    60  52  74 SW9       29.88F
YANKTON        PTCLDY    56  52  86 SW7       29.93S
$$

ABBREVIATIONS USED IN REMARKS
   TC - TEMPERATURE IN CELSIUS
  WCI - WIND CHILL INDEX
   HX - HEAT INDEX
  VSB - VISIBILITY





USA.gov is the U.S. government's official web portal to all federal, state and local government web resources and services.